Prague, Czech Republic

6:25 PM CEST on July 28, 2017 (GMT +0200)
Ruzyne

Weather History for LKPR - May, 2013

Change the Weather History Date:

Tuesday, May 14, 2013

  Actual Average Record
Temperature  
Mean Temperature 55 °F -  
Max Temperature 63 °F 68 °F 80 °F (2007)
Min Temperature 47 °F 48 °F 33 °F (2012)
Degree Days  
Heating Degree Days 10    
Growing Degree Days 5 (Base 50)    
Moisture  
Dew Point 45 °F    
Average Humidity 70    
Maximum Humidity 93    
Minimum Humidity 42    
Precipitation  
Precipitation 0.00 in 0.10 in - ()
Sea Level Pressure  
Sea Level Pressure 29.92 in    
Wind  
Wind Speed 9 mph ()    
Max Wind Speed 16 mph    
Max Gust Speed -    
Visibility 6.2 miles    
Events      
Averages and records for this station are not official NWS values.
T = Trace of Precipitation, MM = Missing Value Source: Averaged Metar Reports

Daily Weather History Graph

Daily Weather History Graph

Search for Another Location

Airport or City:

Trip Planner

Search our weather history database for the weather conditions in past years. The results will help you decide how hot, cold, wet, or windy it might be!

Date:

Astronomy

May. 14, 2013 Rise Set
Actual Time 5:17 AM CEST 8:41 PM CEST
Civil Twilight 4:38 AM CEST 9:20 PM CEST
Nautical Twilight 3:46 AM CEST 10:13 PM CEST
Astronomical Twilight 2:36 AM CEST 11:25 PM CEST
Moon 8:41 AM CEST (5/14) No Moon Set
Length of Visible Light 16h 42m
Length of Day
15h 23m
Waxing Crescent, 17% of the Moon is Illuminated
May 14
Waxing Crescent
May 18
First Quarter
May 25
Full
May 31
Last Quarter
Jun 8
New

Hourly Weather History & Observations

Time (CEST) Temp. Dew Point Humidity Pressure Visibility Wind Dir Wind Speed Gust Speed Precip Events Conditions
12:00 AM 48.2 °F 46.4 °F 93% 29.98 in 6.2 mi SSW 10.4 mph - N/A   Mostly Cloudy
12:30 AM 48.2 °F 46.4 °F 93% 29.98 in 6.2 mi SSW 10.4 mph - N/A   Mostly Cloudy
1:00 AM 48.2 °F 46.4 °F 93% 29.98 in 6.2 mi SSW 9.2 mph - N/A   Scattered Clouds
1:30 AM 48.2 °F 46.4 °F 93% 29.95 in 6.2 mi SW 9.2 mph - N/A   Scattered Clouds
2:00 AM 49 °F 46 °F 85% 29.98 in 31 mi SW 11.2 mph - -   Mostly Cloudy
2:00 AM 48.2 °F 46.4 °F 93% 29.95 in - SSW 9.2 mph - N/A   Clear
2:30 AM 48.2 °F 46.4 °F 93% 29.95 in - SW 12.7 mph - N/A   Clear
3:00 AM 48.2 °F 46.4 °F 93% 29.95 in - SW 11.5 mph - N/A   Clear
3:30 AM 48.2 °F 46.4 °F 93% 29.95 in - SSW 12.7 mph - N/A   Clear
4:00 AM 48.2 °F 46.4 °F 93% 29.95 in - SSW 12.7 mph - N/A   Clear
4:30 AM 48.2 °F 46.4 °F 93% 29.95 in - South 8.1 mph - N/A   Clear
5:00 AM 48.2 °F 46.4 °F 93% 29.92 in - SW 9.2 mph - N/A   Clear
5:30 AM 48.2 °F 46.4 °F 93% 29.95 in - SW 10.4 mph - N/A   Clear
6:00 AM 50.0 °F 46.4 °F 87% 29.95 in - SW 10.4 mph - N/A   Clear
6:30 AM 50.0 °F 46.4 °F 87% 29.95 in - SW 8.1 mph - N/A   Clear
7:00 AM 50.0 °F 46.4 °F 87% 29.95 in - SW 6.9 mph - N/A   Clear
7:30 AM 51.8 °F 46.4 °F 82% 29.95 in - SW 13.8 mph - N/A   Clear
8:00 AM 52 °F 47 °F 76% 29.96 in 22 mi SW 13.4 mph - -   Mostly Cloudy
8:00 AM 51.8 °F 46.4 °F 82% 29.95 in - SW 16.1 mph - N/A   Clear
8:30 AM 53.6 °F 46.4 °F 77% 29.95 in - SW 15.0 mph - N/A   Clear
9:00 AM 55.4 °F 46.4 °F 72% 29.95 in 6.2 mi SW 12.7 mph - N/A   Partly Cloudy
9:30 AM 55.4 °F 48.2 °F 77% 29.95 in 6.2 mi WSW 11.5 mph - N/A   Partly Cloudy
10:00 AM 55.4 °F 44.6 °F 67% 29.95 in 6.2 mi WSW 13.8 mph - N/A   Partly Cloudy
10:30 AM 57.2 °F 44.6 °F 63% 29.95 in 6.2 mi WSW 10.4 mph - N/A   Scattered Clouds
11:00 AM 57.2 °F 44.6 °F 63% 29.95 in 6.2 mi WSW 12.7 mph - N/A   Scattered Clouds
11:30 AM 57.2 °F 44.6 °F 63% 29.95 in 6.2 mi SW 11.5 mph - N/A   Scattered Clouds
12:00 PM 59.0 °F 44.6 °F 59% 29.95 in 6.2 mi SW 9.2 mph - N/A   Scattered Clouds
12:30 PM 59.0 °F 44.6 °F 59% 29.95 in 6.2 mi WSW 15.0 mph - N/A   Partly Cloudy
1:00 PM 60.8 °F 42.8 °F 52% 29.95 in 6.2 mi SW 9.2 mph - N/A   Partly Cloudy
1:30 PM 60.8 °F 41.0 °F 48% 29.92 in 6.2 mi SW 13.8 mph - N/A   Partly Cloudy
2:00 PM 60 °F 43 °F 42% 29.92 in 47 mi SW 8.9 mph - -   Mostly Cloudy
2:00 PM 60.8 °F 41.0 °F 48% 29.92 in 6.2 mi WSW 9.2 mph - N/A   Partly Cloudy
2:30 PM 60.8 °F 42.8 °F 52% 29.92 in 6.2 mi WSW 10.4 mph - N/A   Scattered Clouds
3:00 PM 60.8 °F 44.6 °F 55% 29.92 in 6.2 mi SSW 8.1 mph - N/A   Scattered Clouds
3:30 PM 60.8 °F 44.6 °F 55% 29.92 in - SSW 9.2 mph - N/A   Clear
4:00 PM 62.6 °F 41.0 °F 45% 29.89 in - Variable 3.5 mph - N/A   Clear
4:30 PM 62.6 °F 41.0 °F 45% 29.89 in - WNW 3.5 mph - N/A   Clear
5:00 PM 62.6 °F 44.6 °F 52% 29.89 in - Variable 4.6 mph - N/A   Clear
5:30 PM 62.6 °F 44.6 °F 52% 29.89 in - South 5.8 mph - N/A   Clear
6:00 PM 62.6 °F 44.6 °F 52% 29.86 in - SSE 5.8 mph - N/A   Clear
6:30 PM 62.6 °F 44.6 °F 52% 29.86 in - SE 4.6 mph - N/A   Clear
7:00 PM 59.0 °F 44.6 °F 59% 29.86 in - South 5.8 mph - N/A   Clear
7:30 PM 60.8 °F 44.6 °F 55% 29.86 in - SSE 4.6 mph - N/A   Clear
8:00 PM 59 °F 46 °F 51% 29.85 in 47 mi SSE 4.5 mph - -   Scattered Clouds
8:00 PM 59.0 °F 44.6 °F 59% 29.86 in - ESE 5.8 mph - N/A   Clear
8:30 PM 57.2 °F 44.6 °F 63% 29.83 in - ESE 3.5 mph - N/A   Clear
9:00 PM 57.2 °F 42.8 °F 59% 29.83 in - ESE 3.5 mph - N/A   Clear
9:30 PM 55.4 °F 42.8 °F 63% 29.83 in - ESE 3.5 mph - N/A   Clear
10:00 PM 53.6 °F 42.8 °F 67% 29.83 in - East 5.8 mph - N/A   Clear
10:30 PM 53.6 °F 42.8 °F 67% 29.83 in - East 6.9 mph - N/A   Clear
11:00 PM 53.6 °F 42.8 °F 67% 29.83 in - East 5.8 mph - N/A   Clear
11:30 PM 51.8 °F 42.8 °F 71% 29.83 in - East 5.8 mph - N/A   Clear